AFR842 LFPG-TFFF

Flight info

Callsign AFR842
Flight time N/A
Altitude 36000
Route LGL6H/08L LGL UN491 OTOFE DCT ALUTA DCT TAKAS/M081F360 DCT BEDRA DCT 48N020W 45N030W 41N040W/M081F380 38N045W/M081F400 32N050W 24N055W DCT DRDGE/N0467F400 DCT UMAMU UMAMU2D
Aircraft B772/H-SDE2E3FGHIJ5LORVWXY/LB1D1

Departure

Time 2026-05-01 07:48
Airport Charles de Gaulle International Airport (LFPG)

Arrival

Time N/A
Airport Martinique Aimé Césaire International Airport (TFFF)
Time Latitude Longitude Altitude Speed Heading
2026-05-01 07:23 49.00199 2.59012 337 ft 0 kts 85°
2026-05-01 07:30 49.00198 2.58996 337 ft 2 kts 85°
2026-05-01 07:30 49.00197 2.58973 337 ft 2 kts 97°
2026-05-01 07:30 49.00200 2.58951 337 ft 2 kts 110°
2026-05-01 07:31 49.00206 2.58930 337 ft 2 kts 121°
2026-05-01 07:31 49.00238 2.58885 337 ft 2 kts 156°
2026-05-01 07:32 49.00262 2.58875 337 ft 0 kts 175°
2026-05-01 07:32 49.00264 2.58875 337 ft 0 kts 176°
2026-05-01 07:37 49.00255 2.58876 337 ft 0 kts 176°
2026-05-01 07:37 49.00217 2.58881 337 ft 10 kts 175°
2026-05-01 07:37 49.00137 2.58892 335 ft 13 kts 174°
2026-05-01 07:38 49.00057 2.58885 330 ft 12 kts 221°
2026-05-01 07:38 49.00032 2.58724 330 ft 17 kts 263°
2026-05-01 07:38 49.00013 2.58355 337 ft 19 kts 265°
2026-05-01 07:39 49.00000 2.58126 341 ft 23 kts 265°
2026-05-01 07:39 48.99986 2.57855 346 ft 27 kts 265°
2026-05-01 07:39 48.99952 2.57237 359 ft 29 kts 265°
2026-05-01 07:40 48.99937 2.56936 358 ft 25 kts 266°
2026-05-01 07:40 48.99924 2.56686 352 ft 24 kts 266°
2026-05-01 07:40 48.99909 2.56414 348 ft 26 kts 265°
2026-05-01 07:40 48.99894 2.56136 343 ft 22 kts 265°
2026-05-01 07:41 48.99893 2.55926 339 ft 13 kts 282°
2026-05-01 07:41 48.99898 2.55828 337 ft 5 kts 245°
2026-05-01 07:41 48.99892 2.55816 337 ft 0 kts 225°
2026-05-01 07:42 48.99886 2.55809 336 ft 3 kts 215°
2026-05-01 07:42 48.99858 2.55799 336 ft 6 kts 181°
2026-05-01 07:42 48.99815 2.55802 337 ft 5 kts 176°
2026-05-01 07:42 48.99800 2.55804 338 ft 0 kts 176°
2026-05-01 07:44 48.99791 2.55805 338 ft 3 kts 176°
2026-05-01 07:44 48.99702 2.55815 340 ft 6 kts 175°
2026-05-01 07:45 48.99643 2.55822 340 ft 9 kts 176°
2026-05-01 07:45 48.99603 2.55874 340 ft 5 kts 91°
2026-05-01 07:45 48.99603 2.55884 340 ft 0 kts 88°
2026-05-01 07:46 48.99604 2.55909 340 ft 9 kts 87°
2026-05-01 07:47 48.99614 2.56118 342 ft 29 kts 86°
2026-05-01 07:47 48.99636 2.56563 346 ft 65 kts 85°
2026-05-01 07:47 48.99692 2.57581 349 ft 125 kts 85°
2026-05-01 07:47 48.99777 2.59146 407 ft 165 kts 86°
2026-05-01 07:48 49.00045 2.62681 1455 ft 172 kts 88°
2026-05-01 07:48 49.00062 2.64415 2170 ft 166 kts 92°
2026-05-01 07:48 49.00135 2.66200 2734 ft 170 kts 86°
2026-05-01 07:49 49.00243 2.67985 3299 ft 173 kts 86°
2026-05-01 07:49 49.00441 2.71715 4158 ft 187 kts 87°
2026-05-01 07:49 49.00544 2.73758 4284 ft 204 kts 87°
2026-05-01 07:50 49.00658 2.76000 4409 ft 220 kts 87°
2026-05-01 07:50 49.00513 2.80883 4832 ft 244 kts 101°
2026-05-01 07:50 49.00218 2.83532 5040 ft 259 kts 101°
2026-05-01 07:51 48.99916 2.86232 5494 ft 263 kts 101°
2026-05-01 07:51 48.99606 2.89004 5880 ft 269 kts 101°
2026-05-01 07:51 48.99281 2.91805 6317 ft 272 kts 105°
2026-05-01 07:52 48.96990 2.96105 7266 ft 270 kts 157°
2026-05-01 07:52 48.95143 2.96669 7746 ft 273 kts 183°
2026-05-01 07:52 48.93325 2.95917 8250 ft 276 kts 208°
2026-05-01 07:53 48.91178 2.91240 9106 ft 288 kts 260°
2026-05-01 07:53 48.90997 2.88217 9575 ft 291 kts 265°
2026-05-01 07:53 48.90880 2.85128 10039 ft 293 kts 265°
2026-05-01 07:53 48.90756 2.82031 10405 ft 300 kts 265°
2026-05-01 07:54 48.90479 2.75358 10576 ft 332 kts 265°
2026-05-01 07:55 48.90009 2.64221 10856 ft 373 kts 265°
2026-05-01 07:55 48.89920 2.62134 11034 ft 375 kts 265°
2026-05-01 07:56 48.89653 2.55890 11792 ft 380 kts 265°
2026-05-01 07:57 48.89479 2.51877 12334 ft 382 kts 265°
2026-05-01 07:57 48.89123 2.43736 13257 ft 390 kts 265°
2026-05-01 07:58 48.89053 2.42171 13439 ft 391 kts 265°
2026-05-01 07:59 48.88911 2.38959 13806 ft 394 kts 264°
2026-05-01 07:59 48.88602 2.32097 14561 ft 399 kts 263°
2026-05-01 08:00 48.87842 2.15554 16387 ft 410 kts 263°
2026-05-01 08:01 48.87226 2.02540 18004 ft 418 kts 263°
2026-05-01 08:01 48.87014 1.98132 18477 ft 422 kts 263°
2026-05-01 08:01 48.86797 1.93668 18981 ft 425 kts 263°
2026-05-01 08:02 48.86357 1.84729 19903 ft 432 kts 263°
2026-05-01 08:02 48.86128 1.80146 20410 ft 435 kts 263°
2026-05-01 08:03 48.85664 1.70972 21388 ft 441 kts 263°
2026-05-01 08:03 48.85429 1.66372 21859 ft 444 kts 263°
2026-05-01 08:03 48.84943 1.56991 22865 ft 448 kts 262°
2026-05-01 08:04 48.84447 1.47560 23696 ft 455 kts 262°
2026-05-01 08:04 48.83935 1.37967 24625 ft 459 kts 263°
2026-05-01 08:05 48.83767 1.34857 24876 ft 461 kts 262°
2026-05-01 08:05 48.83685 1.33345 24994 ft 463 kts 262°
2026-05-01 08:05 48.83421 1.28476 25425 ft 466 kts 262°
2026-05-01 08:06 48.82885 1.18719 26384 ft 468 kts 262°
2026-05-01 08:06 48.82329 1.08777 27116 ft 477 kts 262°
2026-05-01 08:07 48.81757 0.98710 27828 ft 484 kts 262°
2026-05-01 08:07 48.81173 0.88555 28655 ft 488 kts 262°
2026-05-01 08:08 48.80878 0.83489 29021 ft 490 kts 262°
2026-05-01 08:08 48.80271 0.73180 29821 ft 493 kts 262°
2026-05-01 08:09 48.79657 0.62878 30907 ft 488 kts 262°
2026-05-01 08:09 48.79350 0.57771 31444 ft 486 kts 262°
2026-05-01 08:09 48.79137 0.52726 31896 ft 486 kts 268°
2026-05-01 08:10 48.79675 0.42536 32775 ft 486 kts 274°
2026-05-01 08:10 48.80339 0.32383 33653 ft 484 kts 273°
2026-05-01 08:11 48.80978 0.22296 34543 ft 480 kts 273°
2026-05-01 08:11 48.81598 0.12262 35256 ft 478 kts 274°
2026-05-01 08:12 48.82202 0.02292 35896 ft 475 kts 274°
2026-05-01 08:12 48.82498 -0.02657 36129 ft 475 kts 274°
2026-05-01 08:13 48.83375 -0.17566 36169 ft 474 kts 274°
2026-05-01 08:13 48.84217 -0.32514 36162 ft 474 kts 274°
2026-05-01 08:14 48.84747 -0.42450 36154 ft 473 kts 274°
2026-05-01 08:14 48.85269 -0.52387 36165 ft 473 kts 274°
2026-05-01 08:15 48.86034 -0.67247 36164 ft 473 kts 273°
2026-05-01 08:16 48.86534 -0.77154 36161 ft 472 kts 273°
2026-05-01 08:16 48.87025 -0.87042 36161 ft 473 kts 273°
2026-05-01 08:17 48.87508 -0.96954 36149 ft 471 kts 273°
2026-05-01 08:17 48.87982 -1.06853 36157 ft 472 kts 273°
2026-05-01 08:18 48.88447 -1.16741 36160 ft 469 kts 273°
2026-05-01 08:19 48.89347 -1.36419 36163 ft 467 kts 273°
2026-05-01 08:19 48.89781 -1.46188 36160 ft 465 kts 273°
2026-05-01 08:20 48.90210 -1.56005 36157 ft 464 kts 273°
2026-05-01 08:20 48.90628 -1.65732 36153 ft 463 kts 272°
2026-05-01 08:21 48.91039 -1.75473 36152 ft 464 kts 273°
2026-05-01 08:21 48.91441 -1.85176 36161 ft 464 kts 273°
2026-05-01 08:22 48.91839 -1.94982 36153 ft 464 kts 273°
2026-05-01 08:22 48.92224 -2.04698 36161 ft 464 kts 273°
2026-05-01 08:23 48.92605 -2.14483 36161 ft 464 kts 273°
2026-05-01 08:23 48.92978 -2.24289 36160 ft 464 kts 273°
2026-05-01 08:24 48.93339 -2.34023 36161 ft 464 kts 272°
2026-05-01 08:24 48.93694 -2.43790 36158 ft 464 kts 272°
2026-05-01 08:25 48.94039 -2.53549 36164 ft 464 kts 272°
2026-05-01 08:25 48.94372 -2.63316 36157 ft 464 kts 272°
2026-05-01 08:26 48.94698 -2.73097 36159 ft 464 kts 271°
2026-05-01 08:26 48.95016 -2.82912 36160 ft 464 kts 271°
2026-05-01 08:27 48.95324 -2.92669 36158 ft 464 kts 271°
2026-05-01 08:27 48.95623 -3.02420 36162 ft 465 kts 271°
2026-05-01 08:28 48.95916 -3.12221 36162 ft 464 kts 271°
2026-05-01 08:28 48.96201 -3.22030 36162 ft 464 kts 271°
2026-05-01 08:29 48.96477 -3.31817 36160 ft 465 kts 271°
2026-05-01 08:29 48.96744 -3.41602 36162 ft 465 kts 271°
2026-05-01 08:30 48.97003 -3.51369 36163 ft 465 kts 271°
2026-05-01 08:30 48.97255 -3.61188 36158 ft 465 kts 271°
2026-05-01 08:31 48.97498 -3.71022 36162 ft 465 kts 270°
2026-05-01 08:31 48.97732 -3.80775 36167 ft 465 kts 270°
2026-05-01 08:32 48.97959 -3.90609 36167 ft 465 kts 269°
2026-05-01 08:32 48.98178 -4.00457 36160 ft 466 kts 269°
2026-05-01 08:33 48.98386 -4.10222 36160 ft 466 kts 269°
2026-05-01 08:33 48.98589 -4.20091 36161 ft 466 kts 269°
2026-05-01 08:34 48.98782 -4.29920 36163 ft 466 kts 269°
2026-05-01 08:34 48.98967 -4.39744 36158 ft 466 kts 269°
2026-05-01 08:35 48.99144 -4.49579 36161 ft 466 kts 269°
2026-05-01 08:35 48.99313 -4.59410 36160 ft 466 kts 268°
2026-05-01 08:36 48.99473 -4.69239 36160 ft 466 kts 268°
2026-05-01 08:36 48.99624 -4.79027 36160 ft 466 kts 268°
2026-05-01 08:37 48.99767 -4.88869 36161 ft 466 kts 267°
2026-05-01 08:37 48.99902 -4.98708 36164 ft 466 kts 267°
2026-05-01 08:38 49.00029 -5.08525 36160 ft 466 kts 267°
2026-05-01 08:38 49.00148 -5.18401 36161 ft 466 kts 267°
2026-05-01 08:39 49.00258 -5.28230 36157 ft 467 kts 267°
2026-05-01 08:39 49.00359 -5.38027 36157 ft 466 kts 267°
2026-05-01 08:40 49.00495 -5.52793 36152 ft 467 kts 267°
2026-05-01 08:40 49.00576 -5.62686 36150 ft 467 kts 267°
2026-05-01 08:41 49.00649 -5.72545 36147 ft 466 kts 266°
2026-05-01 08:41 49.00713 -5.82330 36147 ft 466 kts 266°
2026-05-01 08:42 49.00768 -5.92183 36143 ft 467 kts 266°
2026-05-01 08:42 49.00816 -6.02110 36135 ft 467 kts 265°
2026-05-01 08:43 49.00854 -6.11921 36140 ft 467 kts 265°
2026-05-01 08:43 49.00885 -6.21763 36136 ft 467 kts 265°
2026-05-01 08:44 49.00907 -6.31625 36142 ft 466 kts 265°
2026-05-01 08:44 49.00921 -6.41474 36136 ft 467 kts 265°
2026-05-01 08:45 49.00926 -6.51354 36138 ft 467 kts 265°
2026-05-01 08:45 49.00922 -6.61212 36143 ft 467 kts 265°
2026-05-01 08:46 49.00911 -6.71067 36140 ft 467 kts 264°
2026-05-01 08:46 49.00898 -6.78217 36139 ft 466 kts 264°
2026-05-01 08:47 49.00872 -6.87905 36141 ft 467 kts 264°
2026-05-01 08:47 49.00838 -6.97750 36139 ft 468 kts 264°
2026-05-01 08:48 49.00795 -7.07656 36144 ft 467 kts 264°
2026-05-01 08:48 49.00744 -7.17514 36136 ft 467 kts 264°
2026-05-01 08:49 49.00685 -7.27346 36135 ft 467 kts 264°
2026-05-01 08:49 49.00617 -7.37223 36127 ft 468 kts 264°
2026-05-01 08:50 49.00539 -7.47146 36129 ft 469 kts 264°
2026-05-01 08:50 49.00456 -7.57043 36133 ft 469 kts 264°
2026-05-01 08:51 49.00365 -7.66929 36125 ft 468 kts 263°
2026-05-01 08:51 49.00266 -7.76828 36106 ft 470 kts 263°
2026-05-01 08:52 49.00158 -7.86724 36116 ft 470 kts 263°
2026-05-01 08:52 49.00042 -7.96623 36115 ft 469 kts 263°
2026-05-01 08:53 49.00096 -8.06505 36127 ft 473 kts 267°
2026-05-01 08:53 49.00432 -8.16461 36096 ft 472 kts 267°
2026-05-01 08:54 49.00741 -8.26429 36096 ft 473 kts 267°
2026-05-01 08:54 49.01030 -8.36417 36107 ft 471 kts 267°
2026-05-01 08:55 49.01301 -8.46298 36106 ft 471 kts 267°
2026-05-01 08:55 49.01562 -8.56267 36108 ft 471 kts 267°
2026-05-01 08:56 49.01813 -8.66213 36114 ft 471 kts 266°
2026-05-01 08:56 49.02053 -8.76107 36101 ft 470 kts 266°
2026-05-01 08:57 49.02284 -8.86029 36098 ft 470 kts 266°
2026-05-01 08:57 49.02505 -8.95905 36103 ft 470 kts 266°
2026-05-01 08:58 49.02719 -9.05811 36094 ft 468 kts 266°
2026-05-01 08:58 49.02923 -9.15680 36097 ft 467 kts 266°
2026-05-01 08:59 49.03119 -9.25585 36088 ft 469 kts 266°
2026-05-01 08:59 49.03306 -9.35410 36083 ft 468 kts 266°
2026-05-01 09:00 49.03485 -9.45302 36089 ft 467 kts 266°
2026-05-01 09:00 49.03655 -9.55167 36082 ft 469 kts 266°
2026-05-01 09:01 49.03817 -9.65003 36088 ft 467 kts 267°
2026-05-01 09:01 49.03971 -9.74909 36073 ft 468 kts 266°
2026-05-01 09:02 49.04044 -9.79823 36303 ft 467 kts 266°
2026-05-01 09:02 49.04115 -9.84727 36135 ft 466 kts 266°
2026-05-01 09:02 49.04252 -9.94509 36081 ft 462 kts 266°
2026-05-01 09:03 49.04377 -10.04259 36068 ft 465 kts 266°
2026-05-01 09:03 49.04498 -10.14110 36077 ft 464 kts 266°
2026-05-01 09:04 49.04607 -10.23716 36070 ft 462 kts 266°
2026-05-01 09:04 49.04709 -10.33426 36064 ft 462 kts 266°
2026-05-01 09:05 49.04803 -10.43244 36066 ft 463 kts 267°
2026-05-01 09:05 49.04888 -10.52962 36052 ft 463 kts 266°
2026-05-01 09:06 49.04967 -10.62749 36060 ft 461 kts 267°
2026-05-01 09:06 49.05036 -10.72451 36062 ft 461 kts 266°
2026-05-01 09:07 49.05096 -10.82185 36059 ft 461 kts 266°
2026-05-01 09:07 49.05150 -10.91937 36045 ft 460 kts 266°
2026-05-01 09:08 49.05195 -11.01661 36051 ft 461 kts 266°
2026-05-01 09:08 49.05231 -11.11374 36049 ft 460 kts 266°
2026-05-01 09:09 49.05259 -11.21075 36039 ft 461 kts 266°
2026-05-01 09:09 49.05280 -11.30800 36034 ft 460 kts 266°
2026-05-01 09:10 49.05291 -11.40563 36032 ft 461 kts 266°
2026-05-01 09:10 49.05295 -11.50323 36035 ft 463 kts 266°
2026-05-01 09:11 49.05291 -11.60081 36043 ft 461 kts 266°
2026-05-01 09:11 49.05278 -11.69779 36031 ft 462 kts 266°
2026-05-01 09:12 49.05257 -11.79548 36033 ft 462 kts 266°
2026-05-01 09:12 49.05228 -11.89303 36027 ft 463 kts 266°
2026-05-01 09:13 49.05191 -11.99082 36032 ft 463 kts 266°
2026-05-01 09:13 49.05145 -12.08900 36034 ft 462 kts 266°
2026-05-01 09:14 49.05092 -12.18632 36032 ft 461 kts 266°
2026-05-01 09:14 49.05030 -12.28369 36025 ft 461 kts 266°
2026-05-01 09:15 49.04960 -12.38140 36027 ft 460 kts 266°
2026-05-01 09:15 49.04882 -12.47843 36014 ft 461 kts 267°
2026-05-01 09:16 49.04796 -12.57574 36025 ft 460 kts 267°
2026-05-01 09:17 49.04651 -12.72148 36014 ft 460 kts 266°
2026-05-01 09:17 49.04487 -12.86744 36020 ft 462 kts 266°
2026-05-01 09:18 49.04305 -13.01374 36012 ft 460 kts 266°
2026-05-01 09:19 49.04105 -13.15963 36014 ft 462 kts 267°
2026-05-01 09:20 49.03886 -13.30628 36009 ft 462 kts 267°
2026-05-01 09:21 49.03563 -13.50201 36006 ft 463 kts 267°
2026-05-01 09:21 49.03301 -13.64855 36015 ft 466 kts 267°
2026-05-01 09:22 49.02919 -13.84505 36013 ft 467 kts 267°
2026-05-01 09:23 49.02609 -13.99315 36010 ft 467 kts 267°
2026-05-01 09:24 49.02282 -14.14053 36010 ft 466 kts 267°
2026-05-01 09:25 49.01816 -14.33728 36020 ft 466 kts 268°
2026-05-01 09:26 49.01446 -14.48427 36028 ft 465 kts 268°
2026-05-01 09:26 49.01057 -14.63116 36023 ft 464 kts 268°
2026-05-01 09:27 49.00649 -14.77837 36037 ft 466 kts 267°
2026-05-01 09:28 49.00367 -14.87663 36024 ft 465 kts 268°
2026-05-01 09:28 49.00015 -14.97462 36024 ft 467 kts 263°
2026-05-01 09:29 48.97825 -15.11866 36049 ft 466 kts 256°
2026-05-01 09:30 48.95372 -15.26083 36028 ft 466 kts 256°
2026-05-01 09:30 48.92856 -15.40348 36036 ft 466 kts 256°
2026-05-01 09:31 48.91162 -15.49841 36036 ft 467 kts 256°
2026-05-01 09:32 48.88596 -15.64091 36044 ft 466 kts 256°
2026-05-01 09:32 48.86025 -15.78244 36032 ft 466 kts 255°
2026-05-01 09:33 48.84290 -15.87732 36042 ft 467 kts 255°
2026-05-01 09:34 48.81686 -16.01874 36045 ft 466 kts 256°
2026-05-01 09:34 48.79060 -16.16029 36050 ft 466 kts 256°
2026-05-01 09:35 48.76417 -16.30162 36050 ft 465 kts 256°
2026-05-01 09:36 48.74652 -16.39543 36061 ft 465 kts 256°
2026-05-01 09:36 48.72877 -16.48929 36055 ft 465 kts 256°
2026-05-01 09:37 48.71098 -16.58292 36069 ft 464 kts 256°
2026-05-01 09:37 48.68407 -16.72368 36077 ft 466 kts 256°
2026-05-01 09:38 48.65701 -16.86411 36077 ft 466 kts 256°
2026-05-01 09:39 48.62975 -17.00457 36084 ft 466 kts 256°
2026-05-01 09:39 48.61152 -17.09796 36092 ft 466 kts 256°
2026-05-01 09:40 48.58402 -17.23794 36088 ft 466 kts 256°
2026-05-01 09:41 48.56555 -17.33141 36092 ft 465 kts 256°
2026-05-01 09:41 48.53773 -17.47133 36105 ft 465 kts 256°
2026-05-01 09:42 48.51916 -17.56414 36107 ft 466 kts 256°
2026-05-01 09:43 48.48161 -17.75058 36120 ft 466 kts 255°
2026-05-01 09:43 48.46271 -17.84371 36098 ft 466 kts 255°
2026-05-01 09:44 48.43425 -17.98319 36129 ft 466 kts 256°
2026-05-01 09:45 48.41515 -18.07622 36116 ft 468 kts 256°
2026-05-01 09:45 48.38637 -18.21558 36134 ft 468 kts 256°
2026-05-01 09:46 48.36698 -18.30893 36125 ft 468 kts 256°
2026-05-01 09:46 48.34765 -18.40162 36133 ft 469 kts 256°
2026-05-01 09:47 48.32808 -18.49497 36128 ft 468 kts 256°
2026-05-01 09:47 48.30848 -18.58806 36139 ft 469 kts 256°
2026-05-01 09:48 48.28880 -18.68108 36138 ft 470 kts 255°
2026-05-01 09:48 48.26907 -18.77392 36146 ft 470 kts 255°
2026-05-01 09:49 48.24911 -18.86739 36147 ft 472 kts 255°
2026-05-01 09:49 48.22916 -18.96042 36153 ft 471 kts 255°
2026-05-01 09:50 48.20896 -19.05418 36150 ft 473 kts 255°
2026-05-01 09:50 48.18883 -19.14718 36151 ft 472 kts 255°
2026-05-01 09:51 48.16852 -19.24058 36152 ft 473 kts 255°
2026-05-01 09:51 48.14814 -19.33392 36157 ft 472 kts 255°
2026-05-01 09:52 48.12775 -19.42688 36154 ft 472 kts 255°
2026-05-01 09:52 48.10723 -19.52000 36158 ft 473 kts 255°
2026-05-01 09:53 48.08664 -19.61299 36154 ft 472 kts 255°
2026-05-01 09:53 48.06600 -19.70584 36158 ft 474 kts 254°
2026-05-01 09:54 48.04524 -19.79879 35880 ft 473 kts 254°
2026-05-01 09:54 48.03484 -19.84523 36113 ft 472 kts 254°
2026-05-01 09:54 48.02444 -19.89157 36159 ft 476 kts 254°
2026-05-01 09:55 48.00333 -19.98523 36160 ft 476 kts 254°
2026-05-01 09:55 47.98142 -20.07783 36162 ft 476 kts 252°
2026-05-01 09:56 47.95882 -20.17032 36163 ft 477 kts 252°
2026-05-01 09:56 47.93617 -20.26285 36165 ft 478 kts 252°
2026-05-01 09:57 47.91333 -20.35587 36169 ft 479 kts 252°
2026-05-01 09:57 47.89052 -20.44846 36167 ft 479 kts 252°
2026-05-01 09:58 47.86759 -20.54120 36166 ft 480 kts 252°
2026-05-01 09:58 47.84456 -20.63400 36168 ft 481 kts 252°
2026-05-01 09:59 47.82132 -20.72724 36169 ft 481 kts 252°
2026-05-01 09:59 47.79803 -20.82033 36173 ft 482 kts 251°
2026-05-01 10:00 47.77456 -20.91371 36175 ft 482 kts 251°
2026-05-01 10:00 47.75120 -21.00628 36181 ft 483 kts 251°
2026-05-01 10:01 47.72753 -21.09974 36176 ft 483 kts 251°
2026-05-01 10:01 47.70393 -21.19253 36181 ft 484 kts 251°
2026-05-01 10:02 47.68016 -21.28560 36189 ft 484 kts 251°
2026-05-01 10:02 47.65634 -21.37847 36190 ft 485 kts 252°
2026-05-01 10:03 47.63235 -21.47165 36191 ft 484 kts 251°
2026-05-01 10:03 47.60833 -21.56452 36187 ft 485 kts 251°
2026-05-01 10:04 47.58419 -21.65752 36192 ft 486 kts 251°
2026-05-01 10:04 47.55981 -21.75105 36198 ft 486 kts 251°
2026-05-01 10:05 47.53547 -21.84408 36211 ft 487 kts 251°
2026-05-01 10:05 47.51109 -21.93689 36202 ft 488 kts 251°
2026-05-01 10:06 47.48645 -22.03026 36195 ft 487 kts 251°
2026-05-01 10:06 47.46181 -22.12330 36199 ft 488 kts 251°
2026-05-01 10:07 47.43705 -22.21643 36198 ft 488 kts 251°
2026-05-01 10:07 47.41224 -22.30936 36241 ft 492 kts 251°
2026-05-01 10:08 47.38716 -22.40292 36895 ft 490 kts 251°
2026-05-01 10:08 47.37477 -22.44899 37324 ft 486 kts 251°
2026-05-01 10:08 47.36226 -22.49543 37621 ft 485 kts 251°
2026-05-01 10:09 47.34979 -22.54164 37802 ft 486 kts 251°
2026-05-01 10:09 47.33766 -22.58650 37970 ft 487 kts 251°
2026-05-01 10:09 47.32508 -22.63293 38176 ft 487 kts 251°
2026-05-01 10:10 47.29997 -22.72533 38207 ft 487 kts 250°
2026-05-01 10:10 47.26234 -22.86313 38203 ft 486 kts 250°
2026-05-01 10:11 47.23701 -22.95546 38200 ft 488 kts 250°
2026-05-01 10:11 47.21160 -23.04768 38209 ft 487 kts 250°
2026-05-01 10:12 47.19036 -23.12453 38206 ft 487 kts 250°
2026-05-01 10:13 47.14783 -23.27765 38209 ft 487 kts 250°
2026-05-01 10:13 47.12225 -23.36928 38211 ft 487 kts 250°
2026-05-01 10:14 47.08365 -23.50687 38212 ft 488 kts 250°
2026-05-01 10:14 47.05780 -23.59856 38219 ft 487 kts 250°
2026-05-01 10:15 47.03196 -23.68989 38210 ft 488 kts 249°
2026-05-01 10:15 47.00595 -23.78150 38221 ft 488 kts 249°
2026-05-01 10:16 46.97991 -23.87284 38217 ft 488 kts 249°
2026-05-01 10:17 46.94069 -24.00976 38223 ft 487 kts 250°
2026-05-01 10:17 46.90145 -24.14598 38224 ft 487 kts 249°
2026-05-01 10:18 46.86182 -24.28283 38218 ft 488 kts 250°
2026-05-01 10:19 46.83550 -24.37327 38219 ft 488 kts 250°
2026-05-01 10:19 46.80895 -24.46418 38217 ft 489 kts 249°
2026-05-01 10:20 46.76893 -24.60055 38226 ft 488 kts 249°
2026-05-01 10:20 46.74218 -24.69131 38223 ft 489 kts 249°
2026-05-01 10:21 46.70203 -24.82690 38231 ft 489 kts 249°
2026-05-01 10:22 46.66153 -24.96292 38231 ft 489 kts 249°
2026-05-01 10:23 46.62092 -25.09856 38238 ft 490 kts 249°
2026-05-01 10:23 46.58027 -25.23359 38235 ft 488 kts 249°
2026-05-01 10:24 46.52569 -25.41379 38235 ft 489 kts 249°
2026-05-01 10:25 46.47084 -25.59358 38246 ft 489 kts 249°
2026-05-01 10:26 46.44336 -25.68315 38235 ft 488 kts 248°
2026-05-01 10:27 46.38810 -25.86235 38233 ft 487 kts 248°
2026-05-01 10:28 46.34661 -25.99608 38237 ft 488 kts 248°
2026-05-01 10:28 46.30499 -26.12949 38241 ft 486 kts 248°
2026-05-01 10:29 46.26313 -26.26300 38246 ft 486 kts 248°
2026-05-01 10:30 46.20724 -26.44015 38244 ft 486 kts 248°
2026-05-01 10:31 46.15096 -26.61733 38248 ft 487 kts 248°
2026-05-01 10:32 46.10865 -26.74971 38239 ft 487 kts 248°
2026-05-01 10:33 46.05186 -26.92632 38242 ft 486 kts 248°
2026-05-01 10:34 46.00919 -27.05829 38248 ft 488 kts 248°
2026-05-01 10:34 45.98059 -27.14632 38243 ft 486 kts 248°
2026-05-01 10:35 45.93775 -27.27765 38256 ft 487 kts 248°
2026-05-01 10:35 45.90882 -27.36595 38254 ft 486 kts 248°
2026-05-01 10:36 45.86579 -27.49676 38243 ft 486 kts 248°
2026-05-01 10:37 45.83694 -27.58411 38254 ft 487 kts 248°
2026-05-01 10:37 45.79354 -27.71493 38253 ft 486 kts 247°
2026-05-01 10:38 45.76451 -27.80209 38245 ft 485 kts 247°
2026-05-01 10:38 45.73536 -27.88930 38258 ft 485 kts 247°
2026-05-01 10:39 45.70629 -27.97602 38255 ft 486 kts 247°
2026-05-01 10:39 45.67725 -28.06233 38244 ft 485 kts 247°
2026-05-01 10:40 45.64803 -28.14889 38261 ft 484 kts 247°
2026-05-01 10:40 45.61877 -28.23531 38257 ft 485 kts 247°
2026-05-01 10:41 45.58943 -28.32165 38249 ft 484 kts 247°
2026-05-01 10:42 45.54521 -28.45129 38257 ft 484 kts 247°
2026-05-01 10:42 45.51579 -28.53721 38242 ft 483 kts 247°
2026-05-01 10:43 45.48631 -28.62297 38247 ft 483 kts 247°
2026-05-01 10:43 45.45687 -28.70837 38252 ft 482 kts 246°
2026-05-01 10:44 45.42737 -28.79367 38252 ft 482 kts 246°
2026-05-01 10:44 45.39778 -28.87896 38251 ft 481 kts 246°
2026-05-01 10:45 45.36830 -28.96365 38250 ft 480 kts 246°
2026-05-01 10:45 45.33872 -29.04841 38236 ft 479 kts 246°
2026-05-01 10:46 45.30913 -29.13287 38241 ft 479 kts 246°
2026-05-01 10:46 45.27939 -29.21753 38239 ft 480 kts 246°
2026-05-01 10:47 45.24959 -29.30206 38230 ft 479 kts 246°
2026-05-01 10:47 45.21991 -29.38600 38232 ft 479 kts 246°
2026-05-01 10:48 45.19018 -29.46983 38234 ft 476 kts 246°
2026-05-01 10:48 45.16046 -29.55337 38240 ft 478 kts 246°
2026-05-01 10:49 45.13044 -29.63750 38229 ft 476 kts 246°
2026-05-01 10:49 45.10049 -29.72114 38223 ft 477 kts 245°
2026-05-01 10:50 45.07061 -29.80437 38235 ft 478 kts 245°
2026-05-01 10:50 45.04061 -29.88764 38232 ft 476 kts 245°
2026-05-01 10:51 45.01056 -29.97081 38224 ft 476 kts 245°
2026-05-01 10:51 44.98173 -30.05490 38221 ft 474 kts 247°
2026-05-01 10:52 44.95372 -30.13877 38234 ft 475 kts 247°
2026-05-01 10:52 44.92560 -30.22272 38238 ft 474 kts 247°
2026-05-01 10:53 44.89748 -30.30641 38224 ft 474 kts 247°
2026-05-01 10:53 44.86916 -30.39045 38210 ft 473 kts 247°
2026-05-01 10:54 44.84106 -30.47356 38216 ft 474 kts 247°
2026-05-01 10:54 44.81270 -30.55719 38221 ft 474 kts 247°
2026-05-01 10:55 44.78420 -30.64096 38211 ft 473 kts 247°
2026-05-01 10:55 44.75579 -30.72421 38218 ft 474 kts 246°
2026-05-01 10:56 44.72723 -30.80761 38210 ft 474 kts 246°
2026-05-01 10:56 44.69864 -30.89089 38215 ft 473 kts 246°
2026-05-01 10:57 44.66998 -30.97406 38215 ft 474 kts 246°
2026-05-01 10:57 44.64139 -31.05682 38206 ft 473 kts 246°
2026-05-01 10:58 44.61255 -31.14002 38213 ft 474 kts 246°
2026-05-01 10:58 44.58375 -31.22284 38219 ft 474 kts 245°
2026-05-01 10:59 44.55492 -31.30553 38212 ft 474 kts 245°
2026-05-01 10:59 44.52581 -31.38874 38208 ft 473 kts 245°
2026-05-01 11:00 44.49684 -31.47131 38209 ft 474 kts 245°
2026-05-01 11:00 44.46781 -31.55379 38209 ft 473 kts 245°
2026-05-01 11:01 44.43862 -31.63646 38210 ft 473 kts 245°
2026-05-01 11:01 44.40955 -31.71856 38207 ft 473 kts 244°
2026-05-01 11:02 44.38029 -31.80093 38208 ft 474 kts 244°
2026-05-01 11:02 44.35107 -31.88295 38209 ft 474 kts 244°
2026-05-01 11:03 44.32187 -31.96467 38205 ft 473 kts 244°
2026-05-01 11:03 44.29259 -32.04638 38210 ft 473 kts 244°
2026-05-01 11:04 44.26322 -32.12809 38206 ft 473 kts 244°
2026-05-01 11:04 44.23376 -32.20980 38207 ft 472 kts 244°
2026-05-01 11:05 44.20435 -32.29113 38210 ft 472 kts 244°
2026-05-01 11:05 44.17485 -32.37249 38209 ft 472 kts 244°
2026-05-01 11:06 44.14521 -32.45396 38208 ft 472 kts 244°
2026-05-01 11:06 44.11562 -32.53509 38203 ft 471 kts 243°
2026-05-01 11:07 44.07110 -32.65665 38205 ft 472 kts 243°
2026-05-01 11:07 44.04144 -32.73735 38199 ft 470 kts 243°
2026-05-01 11:08 44.01173 -32.81795 38195 ft 470 kts 243°
2026-05-01 11:09 43.96720 -32.93834 38200 ft 470 kts 243°
2026-05-01 11:09 43.93726 -33.01899 38195 ft 470 kts 243°
2026-05-01 11:10 43.89233 -33.13958 38194 ft 470 kts 243°
2026-05-01 11:10 43.86234 -33.21979 38192 ft 470 kts 242°
2026-05-01 11:11 43.83234 -33.29975 38193 ft 469 kts 242°
2026-05-01 11:11 43.80230 -33.37965 38194 ft 469 kts 242°
2026-05-01 11:12 43.77235 -33.45906 38183 ft 468 kts 242°
2026-05-01 11:12 43.74230 -33.53849 38187 ft 466 kts 242°
2026-05-01 11:13 43.71228 -33.61763 38186 ft 466 kts 242°
2026-05-01 11:13 43.68225 -33.69660 38182 ft 463 kts 241°
2026-05-01 11:14 43.65226 -33.77521 38183 ft 463 kts 241°
2026-05-01 11:14 43.62235 -33.85341 38185 ft 462 kts 241°
2026-05-01 11:15 43.59236 -33.93158 38182 ft 462 kts 241°
2026-05-01 11:15 43.56262 -34.00891 38176 ft 460 kts 241°
2026-05-01 11:16 43.53261 -34.08670 38174 ft 461 kts 241°
2026-05-01 11:16 43.50247 -34.16463 38174 ft 460 kts 241°
2026-05-01 11:17 43.47239 -34.24219 38174 ft 460 kts 241°
2026-05-01 11:17 43.44251 -34.31903 38171 ft 459 kts 241°
2026-05-01 11:18 43.41233 -34.39644 38167 ft 459 kts 241°
2026-05-01 11:18 43.38237 -34.47307 38170 ft 458 kts 241°
2026-05-01 11:19 43.35234 -34.54966 38158 ft 457 kts 241°
2026-05-01 11:19 43.32212 -34.62653 38161 ft 456 kts 241°
2026-05-01 11:20 43.29279 -34.70093 38149 ft 455 kts 241°
2026-05-01 11:20 43.26260 -34.77732 38161 ft 454 kts 241°
2026-05-01 11:21 43.23270 -34.85278 38154 ft 454 kts 241°
2026-05-01 11:21 43.20250 -34.92879 38141 ft 453 kts 241°
2026-05-01 11:22 43.17245 -35.00424 38154 ft 454 kts 241°
2026-05-01 11:22 43.14219 -35.07999 38144 ft 453 kts 241°
2026-05-01 11:23 43.11206 -35.15523 38144 ft 452 kts 241°
2026-05-01 11:23 43.08195 -35.23022 38136 ft 451 kts 241°
2026-05-01 11:24 43.05172 -35.30533 38142 ft 452 kts 241°
2026-05-01 11:25 43.00647 -35.41735 38135 ft 451 kts 241°
2026-05-01 11:25 42.96106 -35.52935 38129 ft 449 kts 241°
2026-05-01 11:26 42.91568 -35.64085 38132 ft 449 kts 241°
2026-05-01 11:27 42.88538 -35.71505 38137 ft 449 kts 240°
2026-05-01 11:27 42.85507 -35.78910 38136 ft 449 kts 240°
2026-05-01 11:28 42.82473 -35.86304 38136 ft 448 kts 240°
2026-05-01 11:28 42.79436 -35.93683 38127 ft 447 kts 240°
2026-05-01 11:29 42.74886 -36.04708 38128 ft 447 kts 240°
2026-05-01 11:30 42.70828 -36.14504 38132 ft 447 kts 240°
2026-05-01 11:30 42.67265 -36.23078 38126 ft 447 kts 240°
2026-05-01 11:31 42.64218 -36.30389 38108 ft 447 kts 240°
2026-05-01 11:31 42.61159 -36.37712 38116 ft 446 kts 240°
2026-05-01 11:32 42.58107 -36.45000 38125 ft 446 kts 240°
2026-05-01 11:32 42.55040 -36.52306 38120 ft 446 kts 240°
2026-05-01 11:33 42.51975 -36.59587 38114 ft 445 kts 240°
2026-05-01 11:33 42.48907 -36.66859 38120 ft 445 kts 240°
2026-05-01 11:34 42.45835 -36.74121 38109 ft 445 kts 240°
2026-05-01 11:34 42.42768 -36.81356 38116 ft 445 kts 240°
2026-05-01 11:35 42.39680 -36.88620 38117 ft 452 kts 240°
2026-05-01 11:35 42.36516 -36.96045 38097 ft 460 kts 240°
2026-05-01 11:36 42.33301 -37.03571 38099 ft 462 kts 240°
2026-05-01 11:36 42.30103 -37.11038 38100 ft 461 kts 240°
2026-05-01 11:37 42.26891 -37.18519 38111 ft 461 kts 240°
2026-05-01 11:37 42.23671 -37.26000 38112 ft 463 kts 239°
2026-05-01 11:38 42.20424 -37.33522 38118 ft 461 kts 239°
2026-05-01 11:38 42.17192 -37.40993 38102 ft 460 kts 239°
2026-05-01 11:39 42.13986 -37.48383 38097 ft 461 kts 239°
2026-05-01 11:39 42.10753 -37.55820 38093 ft 461 kts 239°
2026-05-01 11:40 42.07525 -37.63224 38098 ft 460 kts 239°
2026-05-01 11:40 42.04265 -37.70685 38097 ft 461 kts 239°
2026-05-01 11:41 42.01016 -37.78101 38100 ft 460 kts 239°
2026-05-01 11:41 41.97781 -37.85467 38095 ft 461 kts 239°
2026-05-01 11:42 41.94512 -37.92891 38097 ft 461 kts 239°
2026-05-01 11:42 41.91260 -38.00258 38081 ft 460 kts 239°
2026-05-01 11:43 41.87986 -38.07659 38101 ft 461 kts 239°
2026-05-01 11:43 41.84716 -38.15029 38108 ft 460 kts 239°
2026-05-01 11:44 41.79792 -38.26096 38072 ft 461 kts 239°
2026-05-01 11:44 41.76525 -38.33418 38069 ft 460 kts 239°
2026-05-01 11:45 41.73226 -38.40791 38069 ft 460 kts 238°
2026-05-01 11:45 41.69951 -38.48093 38075 ft 460 kts 239°
2026-05-01 11:46 41.66653 -38.55429 38076 ft 460 kts 238°
2026-05-01 11:46 41.63332 -38.62800 38058 ft 460 kts 238°
2026-05-01 11:47 41.60049 -38.70065 38066 ft 460 kts 238°
2026-05-01 11:47 41.56742 -38.77369 38066 ft 460 kts 238°
2026-05-01 11:48 41.53458 -38.84604 38054 ft 459 kts 238°
2026-05-01 11:48 41.50137 -38.91901 38052 ft 460 kts 238°
2026-05-01 11:49 41.46818 -38.99176 38059 ft 459 kts 238°
2026-05-01 11:49 41.43510 -39.06412 38051 ft 460 kts 238°
2026-05-01 11:50 41.40181 -39.13673 38052 ft 459 kts 238°
2026-05-01 11:50 41.36874 -39.20873 38038 ft 459 kts 238°
2026-05-01 11:51 41.33532 -39.28130 38047 ft 460 kts 238°
2026-05-01 11:51 41.30212 -39.35321 38044 ft 459 kts 238°
2026-05-01 11:52 41.26877 -39.42529 38017 ft 459 kts 238°
2026-05-01 11:52 41.23545 -39.49712 38053 ft 459 kts 238°
2026-05-01 11:53 41.20195 -39.56919 38046 ft 458 kts 238°
2026-05-01 11:53 41.16865 -39.64063 38024 ft 458 kts 238°
2026-05-01 11:54 41.13523 -39.71219 38049 ft 458 kts 237°
2026-05-01 11:54 41.10159 -39.78403 38035 ft 458 kts 237°
2026-05-01 11:55 41.06813 -39.85533 38038 ft 458 kts 237°
2026-05-01 11:55 41.03440 -39.92703 38031 ft 458 kts 237°
2026-05-01 11:56 41.00026 -39.99760 38044 ft 457 kts 234°
2026-05-01 11:56 40.96312 -40.06560 38018 ft 457 kts 234°
2026-05-01 11:57 40.92546 -40.13388 38027 ft 457 kts 234°
2026-05-01 11:57 40.88788 -40.20164 38028 ft 457 kts 234°
2026-05-01 11:58 40.85029 -40.26916 38020 ft 457 kts 234°
2026-05-01 11:59 40.79354 -40.37072 38016 ft 457 kts 233°
2026-05-01 11:59 40.75577 -40.43809 38020 ft 458 kts 234°
2026-05-01 12:00 40.69899 -40.53909 38018 ft 458 kts 234°
2026-05-01 12:01 40.64216 -40.63983 38006 ft 457 kts 234°
2026-05-01 12:01 40.60413 -40.70706 38010 ft 459 kts 233°
2026-05-01 12:02 40.56604 -40.77425 38013 ft 459 kts 233°
2026-05-01 12:02 40.52773 -40.84169 37990 ft 458 kts 233°
2026-05-01 12:03 40.48963 -40.90861 38020 ft 459 kts 233°
2026-05-01 12:03 40.45141 -40.97560 38025 ft 458 kts 233°
2026-05-01 12:04 40.41316 -41.04249 37996 ft 459 kts 233°
2026-05-01 12:04 40.37476 -41.10950 37990 ft 460 kts 233°
2026-05-01 12:05 40.33635 -41.17639 37979 ft 460 kts 233°
2026-05-01 12:05 40.27852 -41.27682 38013 ft 459 kts 233°
2026-05-01 12:06 40.24020 -41.34320 38020 ft 459 kts 233°
2026-05-01 12:06 40.20146 -41.41016 37990 ft 459 kts 233°
2026-05-01 12:07 40.16292 -41.47664 37978 ft 461 kts 233°
2026-05-01 12:07 40.12433 -41.54304 38002 ft 460 kts 233°
2026-05-01 12:08 40.08548 -41.60978 38002 ft 461 kts 233°
2026-05-01 12:08 40.04676 -41.67613 37996 ft 460 kts 233°
2026-05-01 12:09 40.00789 -41.74261 38001 ft 460 kts 233°
2026-05-01 12:09 39.96925 -41.80854 37982 ft 460 kts 233°
2026-05-01 12:10 39.91082 -41.90799 37987 ft 460 kts 233°
2026-05-01 12:11 39.85237 -42.00717 37986 ft 461 kts 233°
2026-05-01 12:11 39.81351 -42.07293 37984 ft 461 kts 233°
2026-05-01 12:12 39.77440 -42.13898 37999 ft 461 kts 233°
2026-05-01 12:12 39.73533 -42.20482 37971 ft 461 kts 233°
2026-05-01 12:13 39.69611 -42.27077 37976 ft 461 kts 233°
2026-05-01 12:13 39.65680 -42.33675 37988 ft 462 kts 233°
2026-05-01 12:14 39.61766 -42.40229 37959 ft 461 kts 233°
2026-05-01 12:14 39.57841 -42.46788 37976 ft 463 kts 233°
2026-05-01 12:15 39.53891 -42.53376 37987 ft 462 kts 233°
2026-05-01 12:15 39.49972 -42.59899 37959 ft 462 kts 233°
2026-05-01 12:16 39.46001 -42.66495 37977 ft 464 kts 233°
2026-05-01 12:16 39.42046 -42.73049 37983 ft 463 kts 233°
2026-05-01 12:17 39.38082 -42.79607 37954 ft 463 kts 233°
2026-05-01 12:17 39.34136 -42.86120 37969 ft 464 kts 233°
2026-05-01 12:18 39.30147 -42.92691 37971 ft 464 kts 233°
2026-05-01 12:18 39.26184 -42.99205 37962 ft 465 kts 233°
2026-05-01 12:19 39.22195 -43.05750 37951 ft 465 kts 233°
2026-05-01 12:19 39.18203 -43.12284 37964 ft 465 kts 233°
2026-05-01 12:20 39.14207 -43.18814 37961 ft 465 kts 233°
2026-05-01 12:20 39.10202 -43.25343 37951 ft 465 kts 233°
2026-05-01 12:21 39.06211 -43.31837 37942 ft 465 kts 233°
2026-05-01 12:21 39.02198 -43.38353 37952 ft 466 kts 233°
2026-05-01 12:22 38.98174 -43.44874 37942 ft 466 kts 233°
2026-05-01 12:22 38.94150 -43.51382 37946 ft 467 kts 233°
2026-05-01 12:23 38.90130 -43.57869 37945 ft 465 kts 233°
2026-05-01 12:23 38.86115 -43.64335 37944 ft 466 kts 233°
2026-05-01 12:24 38.82073 -43.70834 37948 ft 467 kts 233°
2026-05-01 12:24 38.78027 -43.77323 37946 ft 468 kts 233°
2026-05-01 12:25 38.71947 -43.87052 37946 ft 467 kts 233°
2026-05-01 12:26 38.67871 -43.93558 37944 ft 469 kts 233°
2026-05-01 12:26 38.61734 -44.03328 37941 ft 468 kts 233°
2026-05-01 12:27 38.55634 -44.13009 37940 ft 470 kts 233°
2026-05-01 12:28 38.49496 -44.22723 37938 ft 470 kts 233°
2026-05-01 12:29 38.43346 -44.32426 37940 ft 470 kts 233°
2026-05-01 12:29 38.37167 -44.42145 37932 ft 470 kts 233°
2026-05-01 12:30 38.30989 -44.51833 37930 ft 471 kts 233°
2026-05-01 12:31 38.26857 -44.58297 37936 ft 471 kts 233°
2026-05-01 12:31 38.22747 -44.64714 37938 ft 471 kts 233°
2026-05-01 12:32 38.18601 -44.71174 37943 ft 471 kts 233°
2026-05-01 12:32 38.12391 -44.80826 37935 ft 472 kts 233°
2026-05-01 12:33 38.08236 -44.87267 37933 ft 472 kts 233°
2026-05-01 12:33 38.04058 -44.93733 37934 ft 473 kts 233°
2026-05-01 12:34 37.99614 -44.99938 37928 ft 477 kts 223°
2026-05-01 12:34 37.94317 -45.05044 37931 ft 479 kts 219°
2026-05-01 12:35 37.88953 -45.10007 37924 ft 479 kts 219°
2026-05-01 12:35 37.83561 -45.14952 37923 ft 479 kts 219°
2026-05-01 12:36 37.78152 -45.19888 37919 ft 479 kts 219°
2026-05-01 12:36 37.72741 -45.24806 37906 ft 479 kts 219°
2026-05-01 12:37 37.67306 -45.29733 37913 ft 479 kts 218°
2026-05-01 12:37 37.61870 -45.34648 37911 ft 479 kts 218°
2026-05-01 12:38 37.56444 -45.39544 37898 ft 480 kts 218°
2026-05-01 12:38 37.51018 -45.44431 37901 ft 480 kts 218°
2026-05-01 12:39 37.45573 -45.49325 37900 ft 480 kts 218°
2026-05-01 12:39 37.40158 -45.54183 37890 ft 480 kts 218°
2026-05-01 12:40 37.34736 -45.59039 37888 ft 480 kts 218°
2026-05-01 12:40 37.29282 -45.63915 37888 ft 479 kts 218°
2026-05-01 12:41 37.23844 -45.68767 37893 ft 481 kts 218°
2026-05-01 12:41 37.18395 -45.73620 37888 ft 480 kts 218°
2026-05-01 12:42 37.12946 -45.78465 37892 ft 481 kts 218°
2026-05-01 12:42 37.07471 -45.83324 37890 ft 481 kts 218°
2026-05-01 12:43 37.02023 -45.88150 37877 ft 481 kts 218°
2026-05-01 12:43 36.96575 -45.92967 37883 ft 481 kts 217°
2026-05-01 12:44 36.91092 -45.97807 37878 ft 481 kts 218°
2026-05-01 12:45 36.80175 -46.07418 37868 ft 481 kts 218°
2026-05-01 12:45 36.74686 -46.12237 37874 ft 481 kts 218°
2026-05-01 12:46 36.69206 -46.17039 37872 ft 481 kts 218°
2026-05-01 12:46 36.63744 -46.21818 37871 ft 481 kts 218°
2026-05-01 12:47 36.58265 -46.26603 37863 ft 480 kts 218°
2026-05-01 12:47 36.52788 -46.31377 37864 ft 480 kts 218°
2026-05-01 12:48 36.47331 -46.36126 37861 ft 480 kts 218°
2026-05-01 12:48 36.41833 -46.40903 37857 ft 480 kts 218°
2026-05-01 12:49 36.36368 -46.45642 37859 ft 480 kts 218°
2026-05-01 12:49 36.30887 -46.50386 37855 ft 480 kts 218°
2026-05-01 12:50 36.25407 -46.55122 37858 ft 480 kts 218°
2026-05-01 12:50 36.19924 -46.59851 37847 ft 479 kts 218°
2026-05-01 12:51 36.14444 -46.64571 37840 ft 479 kts 218°
2026-05-01 12:52 36.06252 -46.71611 37848 ft 479 kts 218°
2026-05-01 12:52 35.98049 -46.78641 37850 ft 479 kts 218°
2026-05-01 12:53 35.89810 -46.85685 37850 ft 479 kts 218°
2026-05-01 12:54 35.84323 -46.90364 37843 ft 478 kts 218°
2026-05-01 12:54 35.76133 -46.97337 37843 ft 478 kts 218°
2026-05-01 12:55 35.67936 -47.04296 37842 ft 478 kts 218°
2026-05-01 12:56 35.62468 -47.08928 37839 ft 477 kts 218°
2026-05-01 12:56 35.56997 -47.13557 37841 ft 477 kts 218°
2026-05-01 12:57 35.51521 -47.18180 37842 ft 477 kts 218°
2026-05-01 12:57 35.43321 -47.25089 37841 ft 477 kts 218°
2026-05-01 12:58 35.37858 -47.29683 37834 ft 476 kts 218°
2026-05-01 12:59 35.29647 -47.36573 37837 ft 476 kts 218°
2026-05-01 12:59 35.21508 -47.43385 37842 ft 475 kts 219°
2026-05-01 13:00 35.13318 -47.50223 37832 ft 475 kts 219°
2026-05-01 13:01 35.05161 -47.57017 37827 ft 473 kts 219°
2026-05-01 13:02 34.97008 -47.63790 37818 ft 473 kts 219°
2026-05-01 13:07 34.37079 -48.13078 37814 ft 474 kts 219°
2026-05-01 13:08 34.31593 -48.17546 37812 ft 473 kts 219°
2026-05-01 13:08 34.26128 -48.21991 37810 ft 474 kts 219°
2026-05-01 13:09 34.20668 -48.26424 37811 ft 474 kts 219°
2026-05-01 13:09 34.15204 -48.30853 37807 ft 474 kts 220°
2026-05-01 13:10 34.09730 -48.35284 37806 ft 475 kts 220°
2026-05-01 13:10 34.04248 -48.39713 37804 ft 475 kts 220°
2026-05-01 13:11 33.98750 -48.44149 37805 ft 474 kts 220°
2026-05-01 13:11 33.93242 -48.48586 37804 ft 475 kts 220°
2026-05-01 13:12 33.87743 -48.53009 37796 ft 477 kts 220°
2026-05-01 13:12 33.82241 -48.57426 37783 ft 476 kts 220°
2026-05-01 13:13 33.76710 -48.61861 37782 ft 476 kts 220°
2026-05-01 13:13 33.71185 -48.66284 37842 ft 479 kts 220°
2026-05-01 13:14 33.65656 -48.70701 37802 ft 475 kts 220°
2026-05-01 13:14 33.60136 -48.75107 37798 ft 477 kts 220°
2026-05-01 13:15 33.54638 -48.79488 37799 ft 479 kts 220°
2026-05-01 13:15 33.49095 -48.83895 37797 ft 476 kts 221°
2026-05-01 13:16 33.43571 -48.88284 37797 ft 479 kts 221°
2026-05-01 13:16 33.38038 -48.92671 37799 ft 478 kts 221°
2026-05-01 13:17 33.26967 -49.01429 37793 ft 478 kts 221°
2026-05-01 13:18 33.18604 -49.08030 37795 ft 481 kts 221°
2026-05-01 13:18 33.13081 -49.12375 37793 ft 476 kts 222°
2026-05-01 13:19 33.07541 -49.16734 37793 ft 478 kts 221°
2026-05-01 13:20 32.99180 -49.23295 37793 ft 478 kts 222°
2026-05-01 13:20 32.93610 -49.27658 37796 ft 480 kts 222°
2026-05-01 13:21 32.85291 -49.34158 37795 ft 475 kts 222°
2026-05-01 13:21 32.79732 -49.38499 37792 ft 479 kts 222°
2026-05-01 13:22 32.74191 -49.42815 37802 ft 477 kts 222°
2026-05-01 13:22 32.68674 -49.47107 37797 ft 476 kts 222°
2026-05-01 13:23 32.63104 -49.51434 37797 ft 477 kts 222°
2026-05-01 13:23 32.57597 -49.55703 37790 ft 474 kts 222°
2026-05-01 13:24 32.54839 -49.57840 37636 ft 474 kts 222°
2026-05-01 13:24 32.52059 -49.59993 37813 ft 475 kts 222°
2026-05-01 13:25 32.43758 -49.66409 37829 ft 473 kts 221°
2026-05-01 13:25 32.38249 -49.70660 37836 ft 475 kts 222°
2026-05-01 13:26 32.32753 -49.74894 37852 ft 473 kts 221°
2026-05-01 13:26 32.27266 -49.79115 37821 ft 470 kts 222°
2026-05-01 13:27 32.21746 -49.83357 37825 ft 473 kts 221°
2026-05-01 13:27 32.13518 -49.89664 37831 ft 472 kts 222°
2026-05-01 13:28 32.05324 -49.95932 37833 ft 469 kts 222°
2026-05-01 13:29 31.94181 -50.03969 38035 ft 468 kts 219°
2026-05-01 13:30 31.82891 -50.11668 37831 ft 467 kts 219°
2026-05-01 13:31 31.77300 -50.15472 37838 ft 466 kts 219°
2026-05-01 13:32 31.63238 -50.25015 37841 ft 466 kts 219°
2026-05-01 13:33 31.49154 -50.34539 37842 ft 469 kts 219°
2026-05-01 13:34 31.37873 -50.42141 37848 ft 468 kts 218°
2026-05-01 13:35 31.29407 -50.47835 37851 ft 470 kts 218°
2026-05-01 13:36 31.20941 -50.53515 37854 ft 470 kts 218°
2026-05-01 13:36 31.12458 -50.59195 37856 ft 471 kts 218°
2026-05-01 13:37 31.06776 -50.62992 37862 ft 471 kts 218°
2026-05-01 13:37 31.01137 -50.66755 37881 ft 468 kts 218°
2026-05-01 13:38 30.92585 -50.72454 37871 ft 471 kts 218°
2026-05-01 13:39 30.86923 -50.76221 37871 ft 472 kts 218°
2026-05-01 13:39 30.81198 -50.80023 37865 ft 470 kts 218°
2026-05-01 13:40 30.75551 -50.83767 37867 ft 469 kts 218°
2026-05-01 13:40 30.69895 -50.87515 37872 ft 470 kts 218°
2026-05-01 13:41 30.64204 -50.91280 37870 ft 468 kts 218°
2026-05-01 13:41 30.58522 -50.95034 37877 ft 470 kts 217°
2026-05-01 13:42 30.52853 -50.98773 37876 ft 470 kts 217°
2026-05-01 13:42 30.47161 -51.02523 37879 ft 468 kts 217°
2026-05-01 13:43 30.41523 -51.06233 37882 ft 468 kts 217°
2026-05-01 13:43 30.35830 -51.09974 37873 ft 471 kts 217°
2026-05-01 13:44 30.30168 -51.13689 37880 ft 470 kts 217°
2026-05-01 13:44 30.24495 -51.17406 37886 ft 469 kts 217°
2026-05-01 13:45 30.18848 -51.21100 37883 ft 466 kts 217°
2026-05-01 13:45 30.13207 -51.24788 37887 ft 466 kts 217°
2026-05-01 13:46 30.07551 -51.28478 37883 ft 465 kts 217°
2026-05-01 13:46 30.01885 -51.32172 37877 ft 466 kts 217°
2026-05-01 13:47 29.96288 -51.35815 37882 ft 464 kts 217°
2026-05-01 13:47 29.90619 -51.39501 37880 ft 465 kts 217°
2026-05-01 13:48 29.84987 -51.43159 37884 ft 468 kts 217°
2026-05-01 13:48 29.79306 -51.46841 37886 ft 465 kts 217°
2026-05-01 13:49 29.73675 -51.50487 37879 ft 467 kts 217°
2026-05-01 13:49 29.68013 -51.54149 37883 ft 463 kts 217°
2026-05-01 13:50 29.62359 -51.57802 38000 ft 469 kts 217°
2026-05-01 13:50 29.59542 -51.59620 38357 ft 468 kts 217°
2026-05-01 13:50 29.56725 -51.61433 38938 ft 462 kts 217°
2026-05-01 13:50 29.53930 -51.63232 39445 ft 457 kts 217°
2026-05-01 13:51 29.51158 -51.65017 39800 ft 455 kts 217°
2026-05-01 13:51 29.45644 -51.68567 39898 ft 457 kts 217°
2026-05-01 13:52 29.40093 -51.72135 39888 ft 456 kts 217°
2026-05-01 13:52 29.34561 -51.75685 39906 ft 455 kts 216°
2026-05-01 13:53 29.29028 -51.79232 39908 ft 455 kts 216°
2026-05-01 13:53 29.20740 -51.84536 39909 ft 456 kts 216°
2026-05-01 13:54 29.15178 -51.88090 39912 ft 456 kts 216°
2026-05-01 13:54 29.09666 -51.91607 39895 ft 454 kts 217°
2026-05-01 13:55 29.04128 -51.95137 39916 ft 455 kts 216°
2026-05-01 13:55 28.98614 -51.98648 39913 ft 456 kts 216°
2026-05-01 13:56 28.93093 -52.02157 39909 ft 454 kts 216°
2026-05-01 13:56 28.87564 -52.05668 39913 ft 455 kts 216°
2026-05-01 13:57 28.82966 -52.08586 39914 ft 458 kts 216°
2026-05-01 13:57 28.76463 -52.12705 39909 ft 457 kts 216°
2026-05-01 13:58 28.70896 -52.16228 39913 ft 459 kts 216°
2026-05-01 13:58 28.65355 -52.19729 39915 ft 459 kts 216°
2026-05-01 13:59 28.59750 -52.23266 39912 ft 460 kts 216°
2026-05-01 13:59 28.54163 -52.26787 39917 ft 459 kts 216°
2026-05-01 14:00 28.48601 -52.30288 39917 ft 459 kts 216°
2026-05-01 14:00 28.42985 -52.33821 39913 ft 462 kts 216°
2026-05-01 14:01 28.37363 -52.37351 39912 ft 461 kts 216°
2026-05-01 14:01 28.31742 -52.40878 39918 ft 463 kts 216°
2026-05-01 14:02 28.26118 -52.44400 39918 ft 463 kts 216°
2026-05-01 14:02 28.20459 -52.47942 39916 ft 462 kts 216°
2026-05-01 14:03 28.14825 -52.51462 39920 ft 462 kts 216°
2026-05-01 14:03 28.09201 -52.54974 39922 ft 466 kts 216°
2026-05-01 14:04 28.03682 -52.58414 39924 ft 465 kts 216°
2026-05-01 14:04 27.98952 -52.61361 39919 ft 467 kts 216°
2026-05-01 14:05 27.92293 -52.65502 39923 ft 466 kts 215°
2026-05-01 14:05 27.86604 -52.69038 39943 ft 469 kts 215°
2026-05-01 14:06 27.80942 -52.72549 39926 ft 466 kts 215°
2026-05-01 14:06 27.75225 -52.76094 39931 ft 470 kts 215°
2026-05-01 14:07 27.69532 -52.79617 39937 ft 467 kts 215°
2026-05-01 14:08 27.60918 -52.84942 39945 ft 471 kts 215°
2026-05-01 14:08 27.55212 -52.88461 39933 ft 469 kts 215°
2026-05-01 14:09 27.49498 -52.91984 39926 ft 470 kts 214°
2026-05-01 14:09 27.43726 -52.95538 39942 ft 471 kts 214°
2026-05-01 14:10 27.38019 -52.99046 39941 ft 468 kts 214°
2026-05-01 14:10 27.32256 -53.02586 39936 ft 470 kts 214°
2026-05-01 14:11 27.26520 -53.06105 39938 ft 472 kts 214°
2026-05-01 14:11 27.17877 -53.11399 39947 ft 471 kts 214°
2026-05-01 14:12 27.12116 -53.14922 39941 ft 472 kts 214°
2026-05-01 14:12 27.06353 -53.18444 39947 ft 473 kts 214°
2026-05-01 14:13 27.01535 -53.21384 39945 ft 473 kts 214°
2026-05-01 14:13 26.94759 -53.25514 39942 ft 474 kts 214°
2026-05-01 14:14 26.89022 -53.29005 39950 ft 472 kts 214°
2026-05-01 14:14 26.83243 -53.32519 39945 ft 473 kts 214°
2026-05-01 14:15 26.77461 -53.36031 39953 ft 471 kts 214°
2026-05-01 14:15 26.71733 -53.39506 39950 ft 473 kts 214°
2026-05-01 14:16 26.65941 -53.43015 39950 ft 471 kts 214°
2026-05-01 14:16 26.60171 -53.46507 39951 ft 471 kts 214°
2026-05-01 14:17 26.54408 -53.49991 39954 ft 472 kts 214°
2026-05-01 14:17 26.48642 -53.53473 39954 ft 470 kts 214°
2026-05-01 14:18 26.42875 -53.56950 39956 ft 470 kts 214°
2026-05-01 14:18 26.38078 -53.59841 39954 ft 472 kts 214°
2026-05-01 14:19 26.31358 -53.63885 39957 ft 470 kts 214°
2026-05-01 14:19 26.25581 -53.67358 39969 ft 472 kts 213°
2026-05-01 14:20 26.16935 -53.72548 39974 ft 473 kts 213°
2026-05-01 14:21 26.11126 -53.76028 39972 ft 470 kts 213°
2026-05-01 14:21 26.05380 -53.79469 39974 ft 471 kts 214°
2026-05-01 14:22 25.96752 -53.84627 39970 ft 471 kts 213°
2026-05-01 14:22 25.90965 -53.88082 39973 ft 471 kts 213°
2026-05-01 14:23 25.85185 -53.91528 39972 ft 471 kts 213°
2026-05-01 14:23 25.79407 -53.94970 39970 ft 469 kts 214°
2026-05-01 14:24 25.73659 -53.98390 39968 ft 469 kts 214°
2026-05-01 14:24 25.67917 -54.01802 39967 ft 469 kts 214°
2026-05-01 14:25 25.62179 -54.05209 39969 ft 468 kts 214°
2026-05-01 14:25 25.56424 -54.08621 39966 ft 467 kts 214°
2026-05-01 14:26 25.47832 -54.13710 39971 ft 465 kts 214°
2026-05-01 14:27 25.42124 -54.17086 39969 ft 465 kts 214°
2026-05-01 14:27 25.36414 -54.20460 39965 ft 465 kts 214°
2026-05-01 14:28 25.27881 -54.25493 39972 ft 463 kts 214°
2026-05-01 14:28 25.22203 -54.28839 39966 ft 463 kts 214°
2026-05-01 14:29 25.16535 -54.32175 39966 ft 462 kts 214°
2026-05-01 14:30 25.05174 -54.38851 39965 ft 461 kts 214°
2026-05-01 14:31 24.96672 -54.43838 39965 ft 460 kts 214°
2026-05-01 14:31 24.91053 -54.47130 39966 ft 461 kts 214°
2026-05-01 14:32 24.85399 -54.50438 39964 ft 460 kts 214°
2026-05-01 14:32 24.79744 -54.53744 39966 ft 458 kts 214°
2026-05-01 14:33 24.74104 -54.57037 39963 ft 457 kts 214°
2026-05-01 14:33 24.68506 -54.60303 39965 ft 457 kts 214°
2026-05-01 14:34 24.62868 -54.63589 39965 ft 455 kts 214°
2026-05-01 14:34 24.57275 -54.66845 39983 ft 457 kts 214°
2026-05-01 14:35 24.51672 -54.70103 39974 ft 455 kts 214°
2026-05-01 14:35 24.46053 -54.73368 39985 ft 454 kts 214°
2026-05-01 14:36 24.40464 -54.76613 39980 ft 457 kts 214°
2026-05-01 14:36 24.34875 -54.79852 39985 ft 454 kts 214°
2026-05-01 14:37 24.29257 -54.83106 39983 ft 454 kts 214°
2026-05-01 14:37 24.23697 -54.86323 39989 ft 453 kts 214°
2026-05-01 14:38 24.18103 -54.89557 39990 ft 454 kts 214°
2026-05-01 14:38 24.12524 -54.92779 39988 ft 453 kts 214°
2026-05-01 14:39 24.06977 -54.95978 39986 ft 450 kts 214°
2026-05-01 14:39 24.01418 -54.99182 39992 ft 450 kts 214°
2026-05-01 14:40 23.95809 -55.02252 39986 ft 454 kts 212°
2026-05-01 14:40 23.90113 -55.05205 39984 ft 452 kts 212°
2026-05-01 14:41 23.84405 -55.08174 39989 ft 453 kts 212°
2026-05-01 14:41 23.78731 -55.11131 39977 ft 454 kts 212°
2026-05-01 14:42 23.73022 -55.14104 39983 ft 452 kts 212°
2026-05-01 14:42 23.67349 -55.17060 39968 ft 453 kts 212°
2026-05-01 14:43 23.61690 -55.20004 39983 ft 450 kts 212°
2026-05-01 14:43 23.56040 -55.22944 39978 ft 452 kts 213°
2026-05-01 14:44 23.50361 -55.25895 39979 ft 451 kts 213°
2026-05-01 14:44 23.41812 -55.30332 39975 ft 451 kts 213°
2026-05-01 14:45 23.33317 -55.34736 39969 ft 450 kts 213°
2026-05-01 14:46 23.27655 -55.37667 39967 ft 452 kts 213°
2026-05-01 14:46 23.19152 -55.42063 39964 ft 448 kts 213°
2026-05-01 14:47 23.13485 -55.44992 39960 ft 451 kts 213°
2026-05-01 14:48 23.05012 -55.49363 39958 ft 449 kts 213°
2026-05-01 14:48 22.96529 -55.53733 39963 ft 449 kts 213°
2026-05-01 14:49 22.85211 -55.59555 39965 ft 450 kts 213°
2026-05-01 14:50 22.73880 -55.65373 39971 ft 450 kts 212°
2026-05-01 14:51 22.65307 -55.69766 39982 ft 449 kts 213°
2026-05-01 14:52 22.56809 -55.74116 39985 ft 450 kts 213°
2026-05-01 14:53 22.48280 -55.78476 39987 ft 451 kts 212°
2026-05-01 14:53 22.42583 -55.81385 39984 ft 451 kts 212°
2026-05-01 14:54 22.36899 -55.84284 39983 ft 452 kts 212°
2026-05-01 14:54 22.31222 -55.87177 39987 ft 450 kts 212°
2026-05-01 14:55 22.25501 -55.90091 39990 ft 453 kts 212°
2026-05-01 14:55 22.19799 -55.92991 39984 ft 453 kts 212°
2026-05-01 14:56 22.14088 -55.95895 39991 ft 454 kts 212°
2026-05-01 14:56 22.08366 -55.98799 39990 ft 453 kts 212°
2026-05-01 14:57 22.02662 -56.01693 39992 ft 454 kts 212°
2026-05-01 14:57 21.94076 -56.06044 39993 ft 454 kts 212°
2026-05-01 14:58 21.88346 -56.08946 39992 ft 455 kts 212°
2026-05-01 14:58 21.82623 -56.11839 39985 ft 453 kts 213°
2026-05-01 14:59 21.76888 -56.14738 39992 ft 453 kts 212°
2026-05-01 14:59 21.71198 -56.17610 39992 ft 455 kts 212°
2026-05-01 15:00 21.62599 -56.21947 39988 ft 454 kts 212°
2026-05-01 15:01 21.56865 -56.24836 39991 ft 454 kts 212°
2026-05-01 15:01 21.51147 -56.27713 39986 ft 452 kts 213°
2026-05-01 15:02 21.45427 -56.30590 39987 ft 453 kts 213°
2026-05-01 15:02 21.39711 -56.33463 39984 ft 454 kts 212°
2026-05-01 15:03 21.33984 -56.36336 39984 ft 451 kts 213°
2026-05-01 15:03 21.28288 -56.39193 39987 ft 451 kts 213°
2026-05-01 15:04 21.22583 -56.42053 39986 ft 452 kts 212°
2026-05-01 15:04 21.16885 -56.44906 39987 ft 452 kts 212°
2026-05-01 15:05 21.11188 -56.47756 39981 ft 452 kts 212°
2026-05-01 15:05 21.05455 -56.50621 39980 ft 452 kts 212°
2026-05-01 15:06 20.99721 -56.53485 39983 ft 452 kts 212°
2026-05-01 15:06 20.94053 -56.56313 39983 ft 452 kts 213°
2026-05-01 15:07 20.88313 -56.59176 39980 ft 453 kts 212°
2026-05-01 15:07 20.82623 -56.62009 39978 ft 449 kts 212°
2026-05-01 15:08 20.76917 -56.64850 39983 ft 450 kts 212°
2026-05-01 15:08 20.71229 -56.67679 39998 ft 452 kts 212°
2026-05-01 15:09 20.65526 -56.70512 40000 ft 451 kts 212°
2026-05-01 15:09 20.59847 -56.73332 39998 ft 450 kts 212°
2026-05-01 15:10 20.54135 -56.76167 39994 ft 453 kts 212°
2026-05-01 15:10 20.45598 -56.80396 39996 ft 450 kts 212°
2026-05-01 15:11 20.37016 -56.84645 39995 ft 450 kts 212°
2026-05-01 15:12 20.31321 -56.87461 39993 ft 453 kts 212°
2026-05-01 15:12 20.22759 -56.91690 39993 ft 452 kts 212°
2026-05-01 15:14 20.08475 -56.98735 39995 ft 452 kts 212°
2026-05-01 15:14 19.99912 -57.02951 39993 ft 452 kts 212°
2026-05-01 15:15 19.88428 -57.08596 39990 ft 451 kts 213°
2026-05-01 15:16 19.77003 -57.14205 39987 ft 452 kts 212°
2026-05-01 15:18 19.62718 -57.21204 39988 ft 451 kts 212°
2026-05-01 15:19 19.51265 -57.26807 39988 ft 452 kts 212°
2026-05-01 15:19 19.42717 -57.30982 39985 ft 450 kts 212°
2026-05-01 15:20 19.34138 -57.35168 39983 ft 452 kts 213°
2026-05-01 15:21 19.28441 -57.37945 39984 ft 451 kts 213°
2026-05-01 15:21 19.22698 -57.40742 39981 ft 450 kts 213°
2026-05-01 15:22 19.14179 -57.44887 39981 ft 451 kts 213°
2026-05-01 15:22 19.08436 -57.47679 39982 ft 450 kts 213°
2026-05-01 15:23 19.02758 -57.50436 39980 ft 449 kts 213°
2026-05-01 15:23 18.97083 -57.53191 39981 ft 450 kts 213°
2026-05-01 15:24 18.91335 -57.55979 39980 ft 448 kts 213°
2026-05-01 15:24 18.85642 -57.58739 39979 ft 450 kts 212°
2026-05-01 15:25 18.79964 -57.61488 39978 ft 450 kts 213°
2026-05-01 15:25 18.74225 -57.64267 39978 ft 453 kts 212°
2026-05-01 15:26 18.68512 -57.67028 39997 ft 451 kts 212°
2026-05-01 15:26 18.62812 -57.69783 39996 ft 452 kts 212°
2026-05-01 15:27 18.57060 -57.72561 39998 ft 453 kts 212°
2026-05-01 15:28 18.48471 -57.76703 39995 ft 453 kts 212°
2026-05-01 15:28 18.42722 -57.79474 39994 ft 454 kts 212°
2026-05-01 15:29 18.34087 -57.83631 39993 ft 452 kts 212°
2026-05-01 15:30 18.22574 -57.89168 39995 ft 454 kts 211°
2026-05-01 15:31 18.05288 -57.97465 39990 ft 453 kts 211°
2026-05-01 15:32 17.99804 -58.00607 39988 ft 443 kts 222°
2026-05-01 15:32 17.95320 -58.04912 39993 ft 438 kts 231°
2026-05-01 15:34 17.82520 -58.18673 40001 ft 438 kts 231°